Hourly Data Report for September 23, 2017

All times are specified in Local Standard Time (LST). Add 1 hour to adjust for Daylight Saving Time where and when it is observed.

SUMMERSIDE
PRINCE EDWARD ISLAND

46°26'28.000" N
63°50'17.000" W
12.20 m
8300596
71702
WSD

Download Data

Hourly Data (September 2017)
Hourly Data Report for September 23, 2017
Temp Definition
°C
Dew Point Temp Definition
°C
Rel Hum Definition
%
Wind Dir Definition
10's deg

Wind Spd Definition
km/h
Visibility Definition
km
Stn Press Definition
kPa
Hmdx Definition


Wind Chill Definition


Weather Definition


TIME
00:00 10.5 9.2 92 19 6   101.68     LegendNANA
01:00 11.9 10.8 93 18 9   101.68     LegendNANA
02:00 11.4 10.2 92 20 11   101.60     LegendNANA
03:00 13.3 11.9 91 22 16   101.54     LegendNANA
04:00 14.0 12.1 89 22 16   101.48     LegendNANA
05:00 13.5 11.3 86 23 12   101.44     LegendNANA
06:00 12.5 10.9 90 21 14   101.39     LegendNANA
07:00 14.0 11.7 86 23 13   101.37     LegendNANA
08:00 15.4 12.6 83 23 14   101.37     LegendNANA
09:00 16.7 12.1 74 23 19   101.34     LegendNANA
10:00 18.3 11.7 66 23 24   101.32     LegendNANA
11:00 19.7 11.3 59 23 31   101.23     LegendNANA
12:00 22.0 12.3 54 23 27   101.18     LegendNANA
13:00 24.5 11.0 43 24 24   101.14 26   LegendNANA
14:00 25.3 9.3 36 25 26   101.11 26   LegendNANA
15:00 26.1 8.8 34 25 22   101.06 27   LegendNANA
16:00 26.0 9.5 35 26 18   101.06 27   LegendNANA
17:00 25.4 11.6 42 23 8   101.12 27   LegendNANA
18:00 22.6 13.7 57 35 7   101.22 26   LegendNANA
19:00 18.1 12.6 70 6 24   101.35     LegendNANA
20:00 17.3 10.9 66 7 18   101.47     LegendNANA
21:00 16.7 11.6 72 5 19   101.50     LegendNANA
22:00 15.5 11.5 77 6 13   101.56     LegendNANA
23:00 14.1 10.5 79 9 11   101.55     LegendNANA

Notes on Data Quality.

Legend

  • E = Estimated
  • M = Missing
  • NA = Not Available
  • ‡ = Partner data that is not subject to review by the National Climate Archives
Date modified: